Location: ??????
(55.2000°N, 38.3000°E)
Time: 02:43:21
(UTC+00:00)

USA 234 - Visible Passes

Search period start: 19 February 2026 00:00
Search period end: 01 March 2026 00:00
Orbit: 1102 x 1106 km, 123.0° (Epoch: 4 January)

Date Brightness Start Highest point End Pass type
(mag) Time Alt. Az. Time Alt. Az. Time Alt. Az.
19 Feb 4.3 16:15:01 10° SSE 16:21:10 42° SW 16:27:22 10° WNW visible
19 Feb 5.5 18:02:17 10° SSW 18:05:31 14° WSW 18:08:46 10° W visible
20 Feb 3.7 15:31:34 10° SE 15:38:04 63° SSW 15:44:36 10° WNW visible
20 Feb 5.0 17:16:40 10° S 17:21:58 26° SW 17:27:19 10° WNW visible
21 Feb 4.3 16:32:31 10° SSE 16:38:40 42° SW 16:44:51 10° WNW visible
21 Feb 5.5 18:19:49 10° SSW 18:23:01 14° WSW 18:26:14 10° W visible
22 Feb 3.7 15:49:04 10° SE 15:55:33 63° SSW 16:02:05 10° WNW visible
22 Feb 4.9 17:34:11 10° S 17:39:28 26° SW 17:44:48 10° WNW visible
23 Feb 4.2 16:50:01 10° SSE 16:56:10 42° SW 17:02:21 10° WNW visible
23 Feb 5.5 18:37:21 10° SSW 18:40:31 14° WSW 18:43:42 10° W visible
24 Feb 3.7 16:06:34 10° SE 16:13:03 63° SSW 16:19:35 10° WNW visible
24 Feb 4.9 17:52:47 14° S 17:56:58 26° SW 18:02:17 10° WNW visible
25 Feb 3.4 15:23:32 10° ESE 15:30:07 83° SSW 15:36:43 10° WNW visible
25 Feb 4.2 17:08:24 14° SSE 17:13:40 42° SW 17:19:50 10° WNW visible
25 Feb 5.4 18:55:46 12° SW 18:58:01 14° WSW 19:01:10 10° W visible
26 Feb 3.6 16:24:04 10° SE 16:30:33 62° SSW 16:37:04 10° WNW visible
26 Feb 4.8 18:11:22 18° SSW 18:14:28 26° SW 18:19:46 10° WNW visible
27 Feb 3.4 15:41:02 10° ESE 15:47:36 83° SSW 15:54:13 10° WNW visible
27 Feb 4.1 17:26:56 20° SSE 17:31:09 42° SW 17:37:20 10° WNW visible
27 Feb 5.3 19:14:16 13° SW 19:15:31 14° WSW 19:18:38 10° W visible
28 Feb 3.6 16:42:28 15° SE 16:48:03 62° SSW 16:54:34 10° WNW visible
28 Feb 4.7 18:29:49 22° SSW 18:31:58 25° SW 18:37:16 10° WNW visible
